Flight Track Log - Related Links

Times and Time Zones

All times are in EDT time to prevent confusion due to time zone crossing. See the EGF2829 flight status page for this flight to view local times or setup timezone preferences in your user account.

Time Position Orientation Groundspeed Altitude Reporting Facility
EDT Latitude Longitude Course Direction KTS MPH feet Rate Location/Type
05:02PM 42.0000 -87.9500 270° West 170 196 1,800  Level Chicago TRACON
05:03PM 42.0500 -88.0000 323° Northwest 226 260 3,600 1,842 Climbing Chicago TRACON
05:05PM 41.9667 -88.4120 270° West  Level FlightAware Approximate
05:05PM 42.1447 -88.1439 312° West 277 319 8,000  Level Chicago Center
05:06PM 41.9667 -88.5400 270° West  Level FlightAware Approximate
05:06PM 42.1353 -88.2728 264° West 292 336 10,400  Level Chicago Center
05:07PM 41.9668 -88.6681 270° West  Level FlightAware Approximate
05:07PM 42.1264 -88.3917 264° West 315 362 11,700  Level Chicago Center
05:08PM 42.1247 -88.5197 269° West 339 390 13,200 1,403 Climbing Chicago Center
05:10PM 42.1228 -88.6511 269° West 349 402 14,600 1,548 Climbing Chicago Center
05:11PM 42.1200 -88.8139 269° West 362 417 16,400 1,500 Climbing Chicago Center
05:12PM 42.1183 -88.9522 269° West 365 420 17,700 1,113 Climbing Chicago Center
05:13PM 42.1147 -89.0931 268° West 372 428 18,700 1,016 Climbing Chicago Center
05:14PM 42.1139 -89.2386 270° West 386 444 19,800 1,113 Climbing Chicago Center
05:15PM 42.1108 -89.3853 268° West 391 450 21,000 1,306 Climbing Chicago Center
05:16PM 42.1097 -89.5314 269° West 389 448 22,500 1,403 Climbing Chicago Center
05:17PM 42.1078 -89.7017 269° West 391 450 23,900 720 Climbing Chicago Center
05:18PM 42.1064 -89.8528 269° West 400 460 24,000 48 Climbing Chicago Center
05:19PM 42.1247 -89.9969 280° West 409 471 24,000  Level Chicago Center
05:20PM 42.1536 -90.1447 285° West 410 472 24,000  Level Chicago Center
05:21PM 42.1817 -90.2908 285° West 408 470 24,000  Level Chicago Center
05:22PM 42.2161 -90.4717 284° West 418 481 24,000  Level Chicago Center
05:23PM 42.2447 -90.6236 284° West 422 486 24,000  Level Chicago Center
05:24PM 42.2717 -90.7767 283° West 422 486 24,000 -532 Level Chicago Center
05:25PM 42.3003 -90.9286 284° West 421 484 22,900 -1,645 Descending Chicago Center
05:26PM 42.3261 -91.0769 283° West 411 473 20,600 -2,419 Descending Chicago Center
05:27PM 42.3592 -91.2525 284° West 405 466 17,900 -2,274 Descending Chicago Center
05:28PM 42.3831 -91.3944 283° West 394 453 15,900 -1,984 Descending Chicago Center
05:29PM 42.4081 -91.5336 284° West 384 442 13,800 -1,920 Descending Chicago Center
05:30PM 42.4328 -91.6692 284° West 373 429 11,900 -1,584 Descending Chicago Center
05:31PM 42.4553 -91.7994 283° West 362 417 10,500 -1,210 Descending Chicago Center
05:32PM 42.4772 -91.9300 283° West 317 365 9,400 -1,210 Descending Chicago Center
05:33PM 42.4953 -92.0339 283° West 294 338 8,000 -1,403 Descending Chicago Center
05:34PM 42.5122 -92.1369 283° West 287 330 6,500 -1,548 Descending Chicago Center
05:35PM 42.5289 -92.2369 283° West 281 323 4,800 -1,645 Descending Chicago Center
05:36PM 42.5525 -92.3289 289° West 273 314 3,100 -1,113 Descending Chicago Center
05:37PM 42.5897 -92.3950 307° West 243 280 2,500 -484 Descending Chicago Center
05:38PM 42.6172 -92.4611 299° West 202 232 2,100 -435 Descending Chicago Center
05:40PM 42.5850 -92.4461 161° South 163 188 1,600 -339 Descending Chicago Center
05:41PM 42.5586 -92.4058 132° Southeast 159 183 1,400 -194 Descending Chicago Center

Login

Don't have an account? Register now (free) for customized features, flight alerts, and more!